NOAA 16 DEB, 41150

Orbit data source: Space-Track

NOAA 16 DEB, 41150 is space debris in SSO originally from a launch on Thu, 21 Sep 2000 UTC launched from the Air Force Western Test Range (AFWTR). Debris objects in space refer to the collection of defunct objects orbiting the Earth. Examples of debris include non-operational satellites, rocket bodies, and fragments generated from explosions, collisions, or faulty payload assembly.

Loading next visibility...
Identifier
41150, 2000-055CH
Orbit
SSO
Country
Flag of USUS
Related business
Manufacturer
Unknown
Mission
Spacecraft
Bus & Motor
Unknown
Mass
Unknown
Launch date (UTC)
2000-09-21 (25 years ago)
Launch vehicle
Unknown
Launch site
Air Force Western Test Range (AFWTR)
Object type
Payload
Rocket body
Debris
Shape & HBR
Unknown shape, 0.1 m
Radar Cross Section
Small (<0.1 m²)

Expand to show TLE details & history
Last TLE update: 2 days ago

TLE from 2 days ago
0 NOAA 16 DEB
1 41150U 00055CH  25299.73925882  .00026629  00000-0  41612-2 0  9993
2 41150  98.8119 104.3814 0030525 322.0704  37.8350 14.72460636517832
Epoch: 2025-10-26T17:44Z
TLE epoch observation values (Epoch: 2025-10-26T17:44:31.962Z)
Latitude
-0.00006°
Longitude
162.8971°
Altitude
639.276 km
Speed
7.548 km/s
True Right ascension
06h 57m 31s
True Declination
0° 00' 00"
Sunlit
Object was in daylight at epoch
Visualization orbit readout
Latitude
Unknown
Longitude
Unknown
Altitude
Unknown
Speed
Unknown
Apparent Right ascension
Unknown
Apparent Declination
Unknown
Sunlit
N/A
Visualization observer readout
Local Sidereal Time
00:38:25
Azimuth
Unknown
Elevation
Unknown
Doppler factor
Unknown
Orbital elements
Apogee altitude
671.772 km
Perigee altitude
628.863 km
Semi-major axis
7,028.455 km
Eccentricity
0.00305
Inclination
98.8119°
RAAN
104.3814°
Arg. of periapsis
322.0704°
True anomaly
38.05021°
Mean anomaly
37.835°
Eccentric anomaly
37.94254°
Mean motion
3.68344 °/min
Orbital period
97.73 mins
BSTAR
0.0041612
Loading maneuver chart data...
Computing Atmospheric mass density...

Documentation

Showing up to 5 results
|